Location: Newark
(35.6799°N, 139.7636°E)
Time: 18:16:07
(UTC+00:00)

Vanguard 3 - Pass Details

Date: 21 December 2019
Orbit: 507 x 3263 km, 33.4° (Epoch: 24 January)

Event Time Altitude Azimuth Distance (km) Brightness Sun altitude
Exits shadow 20:21:40 22° 247° (WSW) 1,377 7.9 -16.8°
Maximum altitude 20:24:26 65° 171° (S) 823 7.2 -16.2°
Drops below altitude 10° 20:31:05 10° 90° (E) 2,998 11.2 -15.0°
Sets 20:34:44 0° 88° (E) 4,403 12.3 -14.2°
